Roseburg, OR

9:46 PM PST on January 19, 2018 (GMT -0800)
Roseburg Regional

Weather History for KRBG - December, 2012

Change the Weather History Date:

Sunday, December 16, 2012

  Actual Average Record
Temperature  
Mean Temperature 47 °F 42 °F  
Max Temperature 53 °F 47 °F 62 °F (1974)
Min Temperature 40 °F 36 °F 19 °F (2008)
Degree Days  
Heating Degree Days 18 23  
Month to date heating degree days 319 362  
Since 1 July heating degree days 1021 1291  
Cooling Degree Days 0 0  
Month to date cooling degree days 0 0  
Year to date cooling degree days 496 480  
Moisture  
Dew Point 41 °F    
Average Humidity 84    
Maximum Humidity 100    
Minimum Humidity 68    
Precipitation  
Precipitation 0.42 in 0.21 in 1.14 in (1955)
Month to date precipitation 3.71 3.09  
Year to date precipitation 37.77 32.83  
Sea Level Pressure  
Sea Level Pressure 29.71 in    
Wind  
Wind Speed 6 mph (South)    
Max Wind Speed 29 mph    
Max Gust Speed 44 mph    
Visibility 8 miles    
Events Rain    
T = Trace of Precipitation, MM = Missing Value Source: NWS Daily Summary

Daily Weather History Graph

Daily Weather History Graph

Search for Another Location

Airport or City:

Trip Planner

Search our weather history database for the weather conditions in past years. The results will help you decide how hot, cold, wet, or windy it might be!

Date:

Astronomy

Dec. 16, 2012 Rise Set
Actual Time 7:39 AM PST 4:39 PM PST
Civil Twilight 7:07 AM PST 5:11 PM PST
Nautical Twilight 6:31 AM PST 5:47 PM PST
Astronomical Twilight 5:56 AM PST 6:22 PM PST
Moon 10:11 AM PST (12/16) 9:05 PM PST (12/16)
Length of Visible Light 10h 04m
Length of Day
8h 59m
Waxing Crescent, 17% of the Moon is Illuminated
Dec 16
Waxing Crescent
Dec 19
First Quarter
Dec 28
Full
Jan 4
Last Quarter
Jan 11
New

Hourly Weather History & Observations

Time (PST) Temp. Windchill Dew Point Humidity Pressure Visibility Wind Dir Wind Speed Gust Speed Precip Events Conditions
12:10 AM 42.8 °F 40.1 °F 39.2 °F 87% 29.91 in 10.0 mi SE 4.6 mph - N/A   Overcast
12:53 AM 42.1 °F 40.2 °F 39.9 °F 92% 29.92 in 10.0 mi SSE 3.5 mph - N/A   Overcast
1:53 AM 42.1 °F - 39.0 °F 89% 29.94 in 10.0 mi Calm Calm - 0.00 in Rain Light Rain
2:53 AM 42.1 °F 40.2 °F 39.0 °F 89% 29.94 in 10.0 mi South 3.5 mph - 0.00 in Rain Light Rain
3:53 AM 41.0 °F - 39.9 °F 96% 29.92 in 10.0 mi Calm Calm - 0.01 in   Overcast
4:53 AM 41.0 °F - 39.0 °F 93% 29.91 in 10.0 mi Calm Calm - N/A   Overcast
5:01 AM 41.0 °F - 39.2 °F 93% 29.90 in 9.0 mi Calm Calm - N/A   Overcast
5:53 AM 41.0 °F - 39.0 °F 93% 29.91 in 10.0 mi Calm Calm - 0.00 in Rain Light Rain
6:53 AM 41.0 °F - 39.0 °F 93% 29.91 in 10.0 mi Calm Calm - 0.01 in Rain Light Rain
7:53 AM 41.0 °F - 39.0 °F 93% 29.88 in 10.0 mi Calm Calm - 0.00 in Rain Light Rain
8:53 AM 41.0 °F - 39.9 °F 96% 29.87 in 7.0 mi Calm Calm - 0.00 in Rain Light Rain
9:53 AM 41.0 °F 39.0 °F 39.0 °F 93% 29.87 in 5.0 mi SSE 3.5 mph - 0.05 in Rain Light Rain
10:53 AM 42.1 °F 39.2 °F 39.9 °F 92% 29.84 in 4.0 mi South 4.6 mph - 0.04 in Rain Light Rain
11:53 AM 43.0 °F 41.3 °F 39.9 °F 89% 29.78 in 10.0 mi Variable 3.5 mph - 0.03 in   Overcast
12:53 PM 45.0 °F 41.2 °F 39.9 °F 82% 29.72 in 10.0 mi SSE 6.9 mph - 0.01 in   Overcast
1:53 PM 48.0 °F - 39.9 °F 74% 29.66 in 10.0 mi SSE 8.1 mph - N/A   Overcast
2:53 PM 50.0 °F - 41.0 °F 71% 29.60 in 10.0 mi South 9.2 mph 23.0 mph 0.00 in   Overcast
3:53 PM 51.1 °F - 41.0 °F 68% 29.56 in 10.0 mi South 11.5 mph 18.4 mph 0.00 in   Overcast
4:53 PM 52.0 °F - 42.1 °F 69% 29.51 in 10.0 mi South 9.2 mph 19.6 mph 0.00 in Rain Light Rain
5:53 PM 53.1 °F - 42.1 °F 66% 29.45 in 10.0 mi South 11.5 mph 23.0 mph 0.00 in   Overcast
6:53 PM 52.0 °F - 45.0 °F 77% 29.43 in 7.0 mi South 9.2 mph 18.4 mph 0.03 in Rain Rain
7:53 PM 52.0 °F - 46.0 °F 80% 29.41 in 5.0 mi SSW 4.6 mph 18.4 mph 0.06 in Rain Rain
8:51 PM 51.8 °F - 51.8 °F 100% 29.44 in 2.0 mi Variable 5.8 mph 17.3 mph 0.11 in Rain Rain
8:53 PM 51.1 °F - 51.1 °F 100% 29.45 in 2.5 mi Variable 6.9 mph 17.3 mph 0.11 in Rain Light Rain
8:59 PM 51.8 °F - - N/A% 29.45 in 8.0 mi South 10.4 mph 18.4 mph 0.00 in Rain Light Rain
9:53 PM 52.0 °F - - N/A% 29.50 in 10.0 mi SW 16.1 mph 31.1 mph 0.00 in   Partly Cloudy
10:53 PM 50.0 °F - - N/A% 29.51 in 7.0 mi SW 13.8 mph 23.0 mph 0.02 in Rain Light Rain
11:53 PM 48.9 °F - - N/A% 29.55 in 3.0 mi SW 11.5 mph 29.9 mph 0.05 in Rain Rain